[[{"header":{"parameterUnit":"m.s-1","parameterCategory":1,"la1":30.2991,"la2":30.254,"lo1":-89.0895,"lo2":-89.0444,"dy":0.0017,"dx":0.0017,"nx":28,"ny":28,"refTime":"2024-06-05T21:00:00:Z","depth":0,"parameterNumber":2,"parameterNumberName":"U-component_of_WINDS"},"data":[0,0,0,0,0,0,0,0,0,0,0,0,0,0,0,0,0,0,0,0,0,0,0,0,0,0,0,0,0,0,0,0,0,0,0,0,0,0,0,0,0,0,0,0,0,0,0,0,0,0,0,0,0,0,0,0,0,0,-0.1449,-0.1448,0,-0.1314,-0.1312,-0.1311,-0.1231,-0.1231,-0.1231,-0.123,-0.1095,-0.1092,-0.1089,0,0,0,0,0,0,0,0,0,0,0,0,0,-0.1641,-0.1638,-0.1449,-0.1447,-0.1446,-0.1314,-0.1312,-0.131,-0.1231,-0.1231,-0.1231,-0.123,-0.1096,-0.1092,-0.1088,0,0,0,0,0,0,0,0,0,0,0,0,0,-0.1537,-0.1637,-0.1449,-0.139,-0.1384,-0.1314,-0.1312,-0.131,-0.1231,-0.1231,-0.123,-0.123,-0.1097,-0.1093,-0.1088,-0.1068,0,0,-0.1073,-0.1071,0,0,0,0,0,0,0,0,-0.1543,-0.153,-0.1401,-0.1394,-0.1387,-0.1289,-0.133,-0.1229,-0.1232,-0.1289,-0.123,-0.123,-0.116,-0.115,-0.1126,-0.1061,-0.1055,-0.1072,-0.1069,-0.1067,-0.1066,0,0,0,0,0,0,0,-0.155,-0.1536,-0.1396,-0.1399,-0.139,-0.1371,-0.1356,-0.131,-0.1229,-0.1284,-0.1278,-0.1263,-0.1156,-0.1131,-0.1122,-0.1053,-0.1072,-0.1068,-0.1065,-0.1063,-0.0963,-0.0963,0,0,0,0,0,0,-0.1567,-0.1542,-0.14,-0.1392,-0.1465,-0.1368,-0.1351,-0.1321,-0.123,-0.1215,-0.1264,-0.126,-0.1139,-0.1128,-0.1117,-0.1086,-0.1067,-0.1063,-0.106,-0.0963,-0.0963,-0.0964,0,0,0,0,0,0,-0.1571,-0.1555,-0.1405,-0.1465,-0.1444,-0.1365,-0.1332,-0.1318,-0.1293,-0.1214,-0.1199,-0.1252,-0.1139,-0.1124,-0.108,-0.108,-0.106,-0.1056,-0.0962,-0.0963,-0.0963,-0.1025,0,0,0,0,0,0,-0.1577,-0.1557,-0.1548,-0.1465,-0.1442,-0.137,-0.1332,-0.1316,-0.1284,-0.1278,-0.12,-0.1186,-0.1137,-0.1087,-0.1075,-0.1073,-0.1052,-0.0962,-0.0963,-0.0963,-0.1022,-0.1027,-0.1031,0,0,0,0,0,-0.1584,-0.1572,-0.1548,-0.1531,-0.1429,-0.137,-0.1357,-0.13,-0.1285,-0.1275,-0.1224,-0.1189,-0.1082,-0.1084,-0.1069,-0.1066,-0.0962,-0.0963,-0.0963,-0.102,-0.1026,-0.1031,0,0,0,0,0,0,-0.1659,-0.156,-0.1533,-0.1493,-0.144,-0.1357,-0.1344,-0.1308,-0.1259,-0.1256,-0.1188,-0.1171,-0.1133,-0.1095,-0.1098,-0.104,-0.1018,-0.1016,-0.1066,-0.1071,-0.1076,-0.1086,-0.1048,0,0,0,0,0,-0.167,-0.163,-0.1546,-0.152,-0.1494,-0.1424,-0.1396,-0.1356,-0.1299,-0.1277,-0.1223,-0.117,-0.1124,-0.1096,-0.1049,-0.1016,-0.0997,-0.1006,-0.1011,-0.1015,-0.1014,-0.0992,-0.0995,-0.0966,-0.0966,-0.0966,0,0,-0.1694,-0.1635,-0.1615,-0.1533,-0.1488,-0.1448,-0.1406,-0.1366,-0.1335,-0.1271,-0.1225,-0.1184,-0.112,-0.1081,-0.1061,-0.1048,-0.1018,-0.1016,-0.102,-0.1016,-0.0993,-0.0996,-0.0998,-0.0966,-0.0966,-0.0966,0,0,-0.1718,-0.1669,-0.1641,-0.1595,-0.1526,-0.1479,-0.1472,-0.1393,-0.1363,-0.1315,-0.1266,-0.1229,-0.1152,-0.1108,-0.1076,-0.108,-0.1045,-0.1067,-0.1091,-0.107,-0.1072,-0.1074,-0.1075,-0.1076,-0.1066,-0.1066,-0.1066,0,-0.1757,-0.1694,-0.1631,-0.1593,-0.1559,-0.1497,-0.1467,-0.1427,-0.1347,-0.1324,-0.131,-0.1211,-0.1164,-0.1112,-0.1113,-0.1089,-0.1079,-0.1076,-0.1077,-0.1078,-0.1079,-0.1078,-0.1079,-0.1069,-0.1069,-0.1068,-0.1068,0,-0.1745,-0.1702,-0.1687,-0.1609,-0.1573,-0.154,-0.1472,-0.1443,-0.1406,-0.136,-0.1312,-0.1253,-0.1193,-0.1177,-0.1142,-0.1121,-0.1114,-0.109,-0.1066,-0.1085,-0.1084,-0.1084,-0.1073,-0.1072,-0.1071,-0.1071,0,0,-0.1813,-0.1699,-0.1695,-0.1658,-0.1576,-0.1542,-0.1505,-0.1445,-0.1421,-0.1367,-0.1335,-0.127,-0.1245,-0.1209,-0.1167,-0.1149,-0.1155,-0.1126,-0.1123,-0.1133,-0.1127,-0.1146,-0.1147,-0.1131,-0.1131,-0.113,-0.1132,0,-0.1824,-0.1754,-0.1696,-0.1648,-0.1607,-0.1547,-0.1515,-0.1461,-0.1417,-0.1376,-0.1327,-0.1282,-0.1254,-0.1231,-0.121,-0.1159,-0.1153,-0.1158,-0.11,-0.1099,-0.1118,-0.1146,-0.1166,-0.1171,-0.1131,-0.1131,-0.1131,0,-0.1828,-0.1775,-0.1723,-0.1643,-0.1623,-0.1596,-0.1534,-0.1496,-0.1434,-0.1403,-0.136,-0.1316,-0.1275,-0.1255,-0.1197,-0.1202,-0.1174,-0.1145,-0.1144,-0.1137,-0.1116,-0.1139,-0.1171,-0.1172,-0.1129,-0.113,-0.113,0,-0.1882,-0.1797,-0.1754,-0.1725,-0.1631,-0.1613,-0.1573,-0.151,-0.1477,-0.1424,-0.1401,-0.1345,-0.1314,-0.1271,-0.1212,-0.1204,-0.116,-0.1136,-0.1133,-0.1135,-0.1127,-0.1128,-0.1155,-0.111,-0.111,-0.111,-0.111,0,-0.19,-0.1871,-0.1777,-0.1751,-0.1716,-0.1649,-0.1615,-0.1571,-0.1515,-0.1479,-0.1423,-0.1391,-0.1316,-0.1274,-0.1228,-0.1187,-0.1173,-0.1147,-0.1135,-0.1152,-0.1155,-0.1133,-0.1132,-0.111,-0.111,-0.111,-0.111,0,-0.1955,-0.1891,-0.1841,-0.1755,-0.1733,-0.1711,-0.1637,-0.161,-0.1561,-0.1516,-0.1502,-0.1427,-0.1375,-0.1312,-0.124,-0.1209,-0.1172,-0.1154,-0.1192,-0.1185,-0.1186,-0.1187,-0.1199,-0.1197,-0.1155,-0.1155,-0.1156,0,-0.1971,-0.1947,-0.1858,-0.1829,-0.179,-0.1745,-0.171,-0.1643,-0.1609,-0.1534,-0.1515,-0.1459,-0.141,-0.133,-0.1269,-0.1213,-0.1194,-0.1202,-0.1185,-0.1202,-0.1193,-0.1196,-0.1192,-0.1207,-0.1208,-0.1208,-0.1209,0,-0.2006,-0.1975,-0.1927,-0.1866,-0.1826,-0.1775,-0.1723,-0.1703,-0.1624,-0.1589,-0.1534,-0.1496,-0.1421,-0.1366,-0.1302,-0.1261,-0.1222,-0.1214,-0.121,-0.1227,-0.125,-0.1237,-0.1204,-0.1214,-0.1214,-0.1213,-0.1213,-0.1213,-0.2042,-0.2016,-0.1949,-0.1896,-0.1849,-0.1801,-0.177,-0.1716,-0.1669,-0.1602,-0.1565,-0.1512,-0.1448,-0.1358,-0.1319,-0.1275,-0.1262,-0.1257,-0.1255,-0.1255,-0.126,-0.1257,-0.1264,-0.1263,-0.1263,-0.1263,-0.1263,0,-0.2073,-0.2026,-0.1978,-0.1905,-0.1864,-0.1828,-0.1768,-0.1735,-0.1688,-0.1632,-0.1584,-0.152,-0.1465,-0.1399,-0.134,-0.1318,-0.1299,-0.1305,-0.1306,-0.1297,-0.1276,-0.1285,-0.1322,-0.1322,-0.1322,-0.1322,-0.1322,-0.1322,-0.2085,-0.2039,-0.2,-0.1931,-0.1884,-0.183,-0.1798,-0.1753,-0.1707,-0.1638,-0.1592,-0.1548,-0.1488,-0.1423,-0.1371,-0.1353,-0.1334,-0.1346,-0.1322,-0.1304,-0.1299,-0.1294,-0.1302,-0.1342,-0.1342,-0.1347,-0.1347,-0.1347]},{"header":{"parameterUnit":"m.s-1","parameterCategory":1,"la1":30.2991,"la2":30.254,"lo1":-89.0895,"lo2":-89.0444,"dy":0.0017,"dx":0.0017,"nx":28,"ny":28,"refTime":"2024-06-05T21:00:00:Z","depth":0,"parameterNumber":3,"parameterNumberName":"V-component_of_WINDS"},"data":[0,0,0,0,0,0,0,0,0,0,0,0,0,0,0,0,0,0,0,0,0,0,0,0,0,0,0,0,0,0,0,0,0,0,0,0,0,0,0,0,0,0,0,0,0,0,0,0,0,0,0,0,0,0,0,0,0,0,-0.5027,-0.5027,0,-0.4973,-0.4972,-0.4972,-0.4969,-0.4969,-0.497,-0.4971,-0.4912,-0.491,-0.4907,0,0,0,0,0,0,0,0,0,0,0,0,0,-0.5128,-0.5126,-0.5028,-0.5027,-0.5026,-0.4973,-0.4972,-0.4972,-0.4969,-0.497,-0.497,-0.4971,-0.4912,-0.491,-0.4907,0,0,0,0,0,0,0,0,0,0,0,0,0,-0.508,-0.5125,-0.5028,-0.5018,-0.5017,-0.4973,-0.4972,-0.4971,-0.4969,-0.497,-0.497,-0.4971,-0.4913,-0.491,-0.4907,-0.4867,0,0,-0.4897,-0.4895,0,0,0,0,0,0,0,0,-0.5082,-0.5076,-0.502,-0.5019,-0.5017,-0.4979,-0.4986,-0.4936,-0.4968,-0.4987,-0.4971,-0.4972,-0.4933,-0.4928,-0.4916,-0.4865,-0.4862,-0.4897,-0.4895,-0.4893,-0.4892,0,0,0,0,0,0,0,-0.5086,-0.5078,-0.5006,-0.502,-0.5018,-0.5016,-0.5011,-0.4977,-0.4955,-0.4985,-0.4985,-0.4979,-0.4932,-0.4919,-0.4914,-0.4861,-0.4897,-0.4894,-0.4892,-0.489,-0.4776,-0.4775,0,0,0,0,0,0,-0.5091,-0.5081,-0.5008,-0.5004,-0.5053,-0.5014,-0.5007,-0.499,-0.4955,-0.4951,-0.4978,-0.4979,-0.4924,-0.4918,-0.4912,-0.4864,-0.4893,-0.489,-0.4888,-0.4777,-0.4776,-0.4775,0,0,0,0,0,0,-0.5093,-0.5085,-0.501,-0.5043,-0.5033,-0.5011,-0.4992,-0.4989,-0.4975,-0.495,-0.4946,-0.4968,-0.4924,-0.4917,-0.4879,-0.4862,-0.4889,-0.4886,-0.4778,-0.4777,-0.4775,-0.4767,0,0,0,0,0,0,-0.5096,-0.5085,-0.507,-0.5042,-0.5031,-0.4978,-0.4991,-0.4987,-0.497,-0.497,-0.494,-0.4936,-0.4925,-0.4884,-0.4876,-0.4858,-0.4883,-0.478,-0.4778,-0.4776,-0.4768,-0.4765,-0.4762,0,0,0,0,0,-0.51,-0.5069,-0.507,-0.5061,-0.5012,-0.4977,-0.497,-0.4959,-0.4969,-0.4953,-0.4937,-0.4937,-0.4866,-0.488,-0.4871,-0.4851,-0.4781,-0.4778,-0.4776,-0.477,-0.4766,-0.4762,0,0,0,0,0,0,-0.5094,-0.5065,-0.5065,-0.5025,-0.5004,-0.4976,-0.4956,-0.4955,-0.493,-0.4931,-0.4918,-0.4911,-0.4874,-0.4859,-0.4876,-0.4812,-0.4824,-0.482,-0.4822,-0.4818,-0.4815,-0.4819,-0.488,0,0,0,0,0,-0.5089,-0.5063,-0.5039,-0.5006,-0.4995,-0.4978,-0.4962,-0.4956,-0.4932,-0.4923,-0.4904,-0.4881,-0.4854,-0.4836,-0.4809,-0.4767,-0.476,-0.475,-0.4746,-0.4744,-0.4739,-0.4717,-0.4711,-0.4767,-0.4767,-0.4767,0,0,-0.5076,-0.5057,-0.5041,-0.5004,-0.4987,-0.496,-0.497,-0.4941,-0.4921,-0.4918,-0.4881,-0.4867,-0.4841,-0.4801,-0.4782,-0.4788,-0.4723,-0.4741,-0.4739,-0.4736,-0.4714,-0.4708,-0.4704,-0.4765,-0.4765,-0.4766,0,0,-0.5039,-0.5022,-0.4993,-0.4976,-0.495,-0.494,-0.4933,-0.4906,-0.4897,-0.4861,-0.4858,-0.4834,-0.4787,-0.4768,-0.4753,-0.4712,-0.471,-0.4704,-0.4686,-0.4664,-0.4659,-0.4655,-0.464,-0.4635,-0.47,-0.47,-0.47,0,-0.5025,-0.4986,-0.4978,-0.4949,-0.4933,-0.4932,-0.4901,-0.4885,-0.4852,-0.484,-0.4847,-0.4789,-0.4771,-0.4727,-0.4717,-0.4705,-0.4696,-0.4706,-0.4661,-0.4657,-0.4653,-0.4638,-0.4632,-0.4699,-0.4699,-0.4699,-0.4699,0,-0.4971,-0.4944,-0.4923,-0.4892,-0.4874,-0.4845,-0.4832,-0.4814,-0.481,-0.4799,-0.4762,-0.4741,-0.471,-0.47,-0.4695,-0.4655,-0.4659,-0.4664,-0.4675,-0.4647,-0.4633,-0.4627,-0.4698,-0.4698,-0.4698,-0.4699,0,0,-0.4925,-0.4893,-0.4885,-0.4872,-0.4845,-0.4823,-0.4794,-0.4766,-0.4751,-0.4729,-0.4703,-0.4665,-0.467,-0.4652,-0.4646,-0.4627,-0.4595,-0.4634,-0.4633,-0.4626,-0.4549,-0.4545,-0.4538,-0.4595,-0.4594,-0.4593,-0.4551,0,-0.4884,-0.4834,-0.4827,-0.4781,-0.4756,-0.4756,-0.4731,-0.4712,-0.4701,-0.4677,-0.4665,-0.4638,-0.4647,-0.4636,-0.4617,-0.4603,-0.4579,-0.4606,-0.457,-0.4569,-0.4575,-0.4531,-0.4525,-0.4487,-0.4546,-0.4545,-0.4544,0,-0.4829,-0.4807,-0.4759,-0.4737,-0.4726,-0.4704,-0.4678,-0.4656,-0.4634,-0.4628,-0.461,-0.4606,-0.4576,-0.4591,-0.4549,-0.4568,-0.4553,-0.4544,-0.4543,-0.4537,-0.4553,-0.4522,-0.4474,-0.4468,-0.4535,-0.4536,-0.4537,0,-0.4799,-0.4757,-0.4724,-0.4713,-0.4686,-0.467,-0.4659,-0.4638,-0.4622,-0.4599,-0.4589,-0.4563,-0.4548,-0.4528,-0.4517,-0.4529,-0.4476,-0.449,-0.4469,-0.4469,-0.4455,-0.4456,-0.4402,-0.4449,-0.4449,-0.4449,-0.445,0,-0.4752,-0.4723,-0.471,-0.4689,-0.4657,-0.465,-0.4618,-0.4606,-0.4589,-0.4565,-0.4564,-0.4542,-0.4531,-0.4507,-0.4499,-0.4466,-0.4459,-0.4453,-0.445,-0.4451,-0.4452,-0.444,-0.4441,-0.4448,-0.4448,-0.4448,-0.4449,0,-0.4712,-0.4702,-0.4666,-0.4645,-0.4639,-0.4616,-0.4598,-0.4577,-0.4568,-0.4539,-0.4532,-0.4516,-0.4489,-0.4478,-0.4443,-0.4438,-0.4399,-0.44,-0.4406,-0.4405,-0.4384,-0.4385,-0.4319,-0.4309,-0.4365,-0.4364,-0.4364,0,-0.4681,-0.4659,-0.4637,-0.4622,-0.461,-0.4585,-0.457,-0.4563,-0.4546,-0.4521,-0.4504,-0.4477,-0.4454,-0.441,-0.4396,-0.437,-0.4369,-0.4347,-0.4364,-0.4367,-0.4367,-0.4367,-0.4365,-0.4343,-0.4343,-0.4342,-0.4342,0,-0.4628,-0.4625,-0.4603,-0.4579,-0.4561,-0.4542,-0.4523,-0.4511,-0.4501,-0.4482,-0.4455,-0.4438,-0.4404,-0.4377,-0.4351,-0.4338,-0.4338,-0.4337,-0.4331,-0.433,-0.4334,-0.4331,-0.4396,-0.4338,-0.4338,-0.4339,-0.4339,-0.4339,-0.4591,-0.4571,-0.4553,-0.4528,-0.4514,-0.4497,-0.4477,-0.4467,-0.4444,-0.4417,-0.4414,-0.4385,-0.4365,-0.433,-0.4317,-0.4293,-0.4299,-0.4289,-0.4287,-0.4284,-0.4282,-0.4341,-0.4289,-0.4289,-0.4289,-0.4289,-0.4289,0,-0.4536,-0.4525,-0.4503,-0.4478,-0.4458,-0.4463,-0.4443,-0.4426,-0.4401,-0.4383,-0.4362,-0.4331,-0.4306,-0.429,-0.4265,-0.4249,-0.4248,-0.4242,-0.4242,-0.4239,-0.4279,-0.4287,-0.4243,-0.4243,-0.4243,-0.4243,-0.4243,-0.4243,-0.4505,-0.4472,-0.4468,-0.4428,-0.4418,-0.4389,-0.4378,-0.4362,-0.4348,-0.4314,-0.4293,-0.4285,-0.4268,-0.4242,-0.4218,-0.4215,-0.4204,-0.4198,-0.4194,-0.4231,-0.4236,-0.424,-0.4247,-0.4196,-0.4196,-0.4155,-0.4155,-0.4155]}]]